Tracking 18980 objects as of 22-Feb-2018
HD Live streaming from Space Station
objects crossing your sky now

FENGYUN 1C DEB

Track FENGYUN 1C DEB now!
10-day predictions


NORAD ID: 31443
Int'l Code: 1999-025BUF
Perigee: 627.2 km
Apogee: 991.5 km
Inclination: 99.2 °
Period: 100.9 minutes
Semi major axis: 7180 km
RCS: 0.0109 m2 (small)
Launch date: May 10, 1999
Source: People's Republic of China (PRC)
Launch site: Taiyaun Space Center, China (TSC)

Note: This is SATELLITE DEBRIS
aabbcc
Your satellite tracking list
Your tracking list is empty




NASA's NSSDC Master Catalog

Two Line Element Set (TLE):
1 31443U 99025BUF 18053.42750211  .00000653  00000-0  20754-3 0  9994
2 31443  99.2499 288.2048 0253645  69.0020 293.8092 14.26871174565126
Source of the keplerian elements: AFSPC